TimeEDT,TemperatureF,Dew PointF,Humidity,Sea Level PressureIn,VisibilityMPH,Wind Direction,Wind SpeedMPH,Gust SpeedMPH,PrecipitationIn,Events,Conditions,WindDirDegrees,DateUTC
12:53 AM,79.0,75.9,90,30.00,10.0,Calm,Calm,-,N/A,,Scattered Clouds,0,2013-07-27 04:53:00
1:53 AM,79.0,75.9,90,29.99,10.0,South,4.6,-,N/A,,Scattered Clouds,170,2013-07-27 05:53:00
2:53 AM,80.1,75.9,87,29.96,10.0,SW,4.6,-,N/A,,Mostly Cloudy,220,2013-07-27 06:53:00
3:53 AM,79.0,77.0,94,29.95,10.0,West,4.6,-,N/A,,Scattered Clouds,270,2013-07-27 07:53:00
4:53 AM,80.1,77.0,90,29.95,10.0,West,4.6,-,N/A,,Partly Cloudy,270,2013-07-27 08:53:00
5:53 AM,79.0,75.9,90,29.96,10.0,SW,4.6,-,N/A,,Partly Cloudy,230,2013-07-27 09:53:00
6:53 AM,79.0,75.9,90,29.98,10.0,Calm,Calm,-,N/A,,Partly Cloudy,0,2013-07-27 10:53:00
7:09 AM,78.8,77.0,94,29.98,10.0,Calm,Calm,-,N/A,,Mostly Cloudy,0,2013-07-27 11:09:00
7:40 AM,80.6,77.0,89,29.99,10.0,SSW,4.6,-,N/A,,Mostly Cloudy,210,2013-07-27 11:40:00
7:53 AM,81.0,77.0,88,29.99,10.0,SW,5.8,-,N/A,,Mostly Cloudy,230,2013-07-27 11:53:00
8:53 AM,82.0,77.0,85,29.99,10.0,West,5.8,-,N/A,,Scattered Clouds,260,2013-07-27 12:53:00
9:23 AM,82.4,77.0,84,29.99,10.0,WNW,5.8,-,N/A,,Overcast,300,2013-07-27 13:23:00
9:53 AM,82.0,75.9,82,29.99,10.0,WNW,4.6,-,0.00,Rain,Light Rain,300,2013-07-27 13:53:00
10:53 AM,81.0,75.9,85,29.99,6.0,East,9.2,-,0.00,Rain,Light Rain,90,2013-07-27 14:53:00
11:21 AM,78.8,75.2,89,30.01,10.0,Variable,5.8,-,0.00,Rain-Thunderstorm,Light Thunderstorms and Rain,0,2013-07-27 15:21:00
11:53 AM,77.0,75.0,94,30.03,8.0,South,9.2,-,0.00,Rain-Thunderstorm,Thunderstorms and Rain,180,2013-07-27 15:53:00
12:14 PM,75.2,73.4,94,30.03,7.0,South,4.6,-,0.01,Rain,Light Rain,190,2013-07-27 16:14:00
12:53 PM,75.9,73.9,94,30.01,9.0,SSW,4.6,-,0.02,Rain,Light Rain,200,2013-07-27 16:53:00
1:53 PM,77.0,73.9,90,29.99,10.0,South,3.5,-,0.01,Rain,Light Rain,190,2013-07-27 17:53:00
2:53 PM,80.1,73.9,81,30.00,10.0,SW,6.9,-,0.00,,Overcast,220,2013-07-27 18:53:00
3:53 PM,75.0,73.0,94,29.98,4.0,WSW,5.8,-,0.12,Rain,Light Rain,240,2013-07-27 19:53:00
3:58 PM,75.2,73.4,94,29.98,2.0,Variable,4.6,-,N/A,Rain,Light Rain,0,2013-07-27 19:58:00
4:08 PM,75.2,75.2,100,29.96,5.0,WSW,4.6,-,N/A,Rain,Light Rain,240,2013-07-27 20:08:00
4:53 PM,78.1,78.1,100,29.96,10.0,West,5.8,-,N/A,,Mostly Cloudy,270,2013-07-27 20:53:00
5:53 PM,80.1,75.0,85,29.96,10.0,Calm,Calm,-,N/A,,Scattered Clouds,0,2013-07-27 21:53:00
6:53 PM,80.1,75.0,85,29.96,10.0,South,3.5,-,N/A,,Partly Cloudy,190,2013-07-27 22:53:00
7:53 PM,80.1,75.0,85,29.97,10.0,SW,3.5,-,N/A,,Scattered Clouds,230,2013-07-27 23:53:00
8:53 PM,80.1,73.0,79,29.97,10.0,South,3.5,-,N/A,,Overcast,190,2013-07-28 00:53:00
9:53 PM,80.6,73.4,79,29.99,10.0,Calm,Calm,-,N/A,,Partly Cloudy,0,2013-07-28 01:53:00
10:53 PM,78.8,75.2,89,30.00,10.0,SSE,4.6,-,N/A,,Partly Cloudy,160,2013-07-28 02:53:00
11:42 PM,80.6,75.2,84,30.01,10.0,South,6.9,-,N/A,Thunderstorm,Thunderstorm,170,2013-07-28 03:42:00
11:53 PM,80.1,75.0,85,30.00,10.0,South,5.8,-,N/A,Thunderstorm,Thunderstorm,180,2013-07-28 03:53:00